{"data":{"norad_id":65336,"intl_designator":"2025-189P","name":"STARLINK-34835","alt_names":[],"object_type":"PAYLOAD","status":"ACTIVE","operator":null,"country":"US","launch_date":"2025-08-27","launch_site_code":"AFETR","launch_vehicle":null,"mission":null,"orbit_class":"UNKNOWN","rcs_meters":null,"size_class":null,"mass_kg":null,"dimensions":null,"purposes":["comms"],"wikipedia_slug":null,"has_3d_model":false,"image_url":null,"decayed_at":null,"tle_current":{"epoch":"2026-05-25T04:24:37.531872Z","epoch_age_seconds":62684,"freshness":"FRESH","line1":"1 65336U 25189P   26145.18376773  .00015894  00000+0  54746-3 0  9993","line2":"2 65336  53.1596 211.7714 0001387  94.3784 265.7376 15.30207595 42819","mean_motion":15.30207595,"eccentricity":0.0001387,"inclination_deg":53.1596,"raan_deg":211.7714,"arg_perigee_deg":94.3784,"mean_anomaly_deg":265.7376,"bstar":0.00054746,"rev_number":4281,"period_min":94.104878625962,"perigee_km":474.24183542543,"apogee_km":476.14294899883,"semimajor_km":6853.3293922121,"source":"CELESTRAK","updated_at":"2026-05-25T13:38:20.760947Z"}}}